FREGAT R/B, 43688

Orbit data source: Space-Track

FREGAT R/B, 43688 is space debris in MEO originally from a launch on Sat, 03 Nov 2018 UTC launched from the Plesetsk Missile And Space Complex (PKMTR). Debris objects in space refer to the collection of defunct objects orbiting the Earth. Examples of debris include non-operational satellites, rocket bodies, and fragments generated from explosions, collisions, or faulty payload assembly.

Loading next visibility...
Identifier
43688, 2018-086B
Orbit
MEO
Country
Flag of CISCIS
Related business
Manufacturer
Lavochkin
Mission
Spacecraft
Bus & Motor
FREGAT, Unknown motor
Mass
1,000 kg wet, 1,000 kg dry
Launch date (UTC)
2018-11-03 (8 years ago)
Launch vehicle
Unknown
Launch site
Plesetsk Missile And Space Complex (PKMTR)
Object type
Payload
Rocket body
Debris
Shape & HBR
Cyl, 1.7 m
Radar Cross Section
8.354 m², Large (>1 m²)

Expand to show TLE details & history
Last TLE update: 4 days ago

TLE from 4 days ago
0 FREGAT R/B
1 43688U 18086B   26169.30370687  .00000055  00000-0  00000+0 0  9999
2 43688  64.2157 196.6233 0064155 131.0643 229.5472  2.08703172 57840
Epoch: 2026-06-18T07:17Z
TLE epoch observation values (Epoch: 2026-06-18T07:17:20.273Z)
Latitude
-0.00003°
Longitude
-179.25571°
Altitude
19,595.886 km
Speed
3.909 km/s
True Right ascension
13h 06m 30s
True Declination
0° 00' 00"
Sunlit
Object was in daylight at epoch
Visualization orbit readout
Latitude
Unknown
Longitude
Unknown
Altitude
Unknown
Speed
Unknown
Apparent Right ascension
Unknown
Apparent Declination
Unknown
Sunlit
N/A
Visualization observer readout
Local Sidereal Time
21:42:55
Azimuth
Unknown
Elevation
Unknown
Doppler factor
Unknown
Orbital elements
Apogee altitude
19,652.645 km
Perigee altitude
19,320.773 km
Semi-major axis
25,864.846 km
Eccentricity
0.00642
Inclination
64.2157°
RAAN
196.6233°
Arg. of periapsis
131.0643°
True anomaly
228.99069°
Mean anomaly
229.5472°
Eccentric anomaly
229.26866°
Mean motion
0.52177 °/min
Orbital period
689.96 mins
BSTAR
0
Loading maneuver chart data...
Computing Atmospheric mass density...
Loading historical data...
Loading historical data...
Loading historical data...
Loading historical data...
Loading historical data...
Loading historical data...
Loading historical data...
Other satellites on launch #86 in the year 2018 (2018-11-03 UTC)

Documentation

Showing up to 5 results
|